Location: Caltech
(34.1382°N, 118.1253°W)
Time: 20:25:34
(UTC-08:00)

ADEOS II - Visible Passes

Search period start: 10 February 2016 00:00
Search period end: 20 February 2016 00:00
Orbit: 800 x 802 km, 98.3° (Epoch: 10 February)

Date Brightness Start Highest point End Pass type
(mag) Time Alt. Az. Time Alt. Az. Time Alt. Az.
10 Feb 2.6 04:22:24 10° NNE 04:27:36 59° E 04:32:45 10° S visible
10 Feb 3.6 06:03:55 10° NNW 06:06:46 15° WNW 06:09:38 10° W visible
11 Feb 3.7 03:56:33 10° NE 04:01:13 32° E 04:05:51 10° SSE visible
11 Feb 3.0 05:36:28 10° NNW 05:40:46 26° WNW 05:45:04 10° SW visible
12 Feb 4.6 03:31:19 10° NE 03:34:45 17° E 03:38:09 10° SE visible
12 Feb 2.3 05:09:38 10° N 05:14:40 47° WNW 05:19:40 10° SW visible
13 Feb 1.9 04:43:09 10° NNE 04:48:27 85° WNW 04:53:42 10° SSW visible
14 Feb 2.8 04:17:00 10° NNE 04:22:09 52° E 04:27:15 10° S visible
14 Feb 3.5 05:58:10 10° NNW 06:01:24 17° WNW 06:04:38 10° WSW visible
15 Feb 3.9 03:51:15 10° NE 03:55:45 28° E 04:00:14 10° SSE visible
15 Feb 2.9 05:30:53 10° N 05:35:22 29° WNW 05:39:51 10° SW visible
16 Feb 4.7 03:26:14 10° ENE 03:29:15 15° E 03:32:17 10° SE visible
16 Feb 2.2 05:04:08 10° N 05:09:14 52° WNW 05:14:20 10° SSW visible
17 Feb 2.0 04:37:43 10° NNE 04:43:01 86° ESE 04:48:16 10° SSW visible
18 Feb 3.0 04:11:38 10° NNE 04:16:41 46° E 04:21:43 10° S visible
18 Feb 3.4 05:52:29 10° NNW 05:56:01 19° WNW 05:59:33 10° WSW visible
19 Feb 4.1 03:45:58 10° NE 03:50:17 25° E 03:54:35 10° SSE visible
19 Feb 2.7 05:25:20 10° N 05:29:58 32° WNW 05:34:35 10° SW visible
